Lid_Strength_Index
8 12 13 11 10 9 9 10 11 9 8 9 10 10 9 8 8 8 7 7 7 6 5 3 3 2 2 2 2 2 2 2 1 2 2 2 2 1 2 1 1 1 0 0
10 12 8 7 8 9 9 11 11 9 8 9 10 10 9 8 8 8 7 7 7 6 5 4 3 3 3 3 2 2 2 4 2 1 2 2 2 2 1 1 1 0 0 0
11 9 6 7 8 9 10 12 11 11 9 9 11 11 10 8 7 7 6 6 6 6 6 5 4 4 3 3 3 2 2 2 4 3 2 2 2 1 2 1 1 1 0 0
9 7 7 8 9 9 12 9 9 9 11 14 11 17 12 10 9 7 6 6 7 6 5 5 5 5 5 3 2 2 2 2 1 3 4 2 3 3 2 3 2 1 1 0
10 8 9 9 9 8 10 7 9 9 11 13 12 16 14 10 10 9 7 6 7 6 6 5 5 5 3 3 3 2 2 2 2 2 2 2 3 3 2 2 2 1 1 1
9 6 7 8 7 7 7 9 10 10 13 17 13 14 13 11 10 8 8 7 6 6 5 5 4 4 4 4 3 3 3 2 2 2 2 2 3 2 2 2 2 2 2 1
9 9 7 7 10 8 9 12 18 18 18 17 11 14 12 9 7 8 8 7 7 6 5 5 5 5 5 4 4 2 3 3 2 2 2 2 2 2 2 2 2 2 2 1
15 17 9 8 10 12 13 13 16 21 20 17 12 17 13 8 7 7 7 8 7 6 6 5 5 5 4 4 3 4 3 3 3 2 2 2 2 2 2 2 2 2 2 1
13 14 9 8 8 9 12 15 11 16 15 19 15 12 9 7 7 8 8 8 8 7 6 5 5 5 5 4 4 4 4 3 2 2 2 2 2 2 2 2 1 1 1 1
11 15 9 7 7 8 10 9 16 16 21 22 16 14 15 11 9 7 7 8 8 8 6 6 5 5 5 4 3 3 3 3 3 2 2 2 2 2 2 2 2 1 1 1
9 12 12 9 11 12 12 13 13 14 15 20 21 16 10 10 9 8 7 6 8 7 7 6 6 5 4 3 4 3 3 3 2 2 2 2 2 1 1 1 1 1 1 1
10 13 16 12 8 8 10 13 13 18 18 16 18 17 8 8 8 7 8 6 6 5 6 6 6 5 5 5 4 3 3 3 3 2 3 2 2 2 2 2 1 1 2 1
10 13 17 15 12 10 12 11 11 13 14 18 19 17 7 8 8 7 7 6 6 6 5 4 4 6 5 5 4 4 4 4 3 3 3 3 2 2 2 2 1 1 1 1
7 12 14 17 14 12 14 12 11 12 17 16 15 13 10 9 8 7 7 6 6 6 5 5 5 4 5 4 4 4 4 3 3 3 3 3 3 2 2 2 1 1 1 2
10 14 12 12 11 10 11 11 11 12 12 15 13 12 10 9 8 8 7 6 6 6 6 5 4 5 5 5 4 4 4 4 3 3 3 3 3 2 2 1 1 1 1 1
9 14 12 14 10 10 12 10 10 11 11 12 12 12 8 8 7 8 7 7 7 6 5 5 4 5 5 4 4 3 4 4 3 3 3 3 2 2 2 1 1 2 2 1
11 13 14 17 11 12 15 12 12 11 11 11 14 11 8 9 8 8 7 7 7 6 5 5 5 5 5 5 4 4 3 3 3 3 2 2 2 2 2 2 2 2 2 2
11 12 13 16 14 20 13 9 10 11 10 9 10 9 8 8 7 6 6 6 6 6 6 6 5 5 5 4 4 4 3 3 3 3 2 2 2 2 2 2 3 2 3 3
9 12 15 17 18 14 11 11 11 12 12 9 10 8 8 7 7 7 5 5 6 5 5 4 4 4 4 4 3 4 4 4 3 3 3 3 3 3 3 3 3 3 3 2
9 9 14 15 18 21 14 9 7 8 15 8 8 9 8 8 12 9 6 6 6 6 5 5 5 4 4 4 4 3 4 4 4 3 3 3 3 3 4 3 2 3 2 2
14 13 15 16 17 14 9 8 7 16 15 8 7 8 8 9 8 7 6 6 6 6 6 5 5 5 5 4 4 4 4 4 3 3 3 3 3 4 3 2 3 3 2 2
14 16 16 15 17 19 8 8 13 10 7 7 7 7 8 7 7 7 7 7 7 7 6 6 6 6 5 5 5 5 5 4 3 3 3 4 4 4 2 3 3 2 2 3
15 12 14 14 14 9 7 8 7 7 7 7 7 7 7 7 8 8 8 8 8 7 7 7 7 7 6 5 5 5 5 4 4 4 4 4 4 3 2 3 3 3 3 3
10 8 12 12 10 9 8 7 7 6 7 7 6 7 8 9 9 10 10 10 10 10 10 9 9 9 9 7 7 6 5 5 5 5 5 4 3 3 2 2 2 3 3 3
10 9 11 11 9 9 7 7 7 7 7 7 7 8 9 9 10 10 12 12 12 12 12 11 11 11 10 9 8 7 6 6 6 6 5 3 3 3 3 3 3 3 3 3
8 11 13 13 10 10 9 8 8 7 7 7 8 9 9 9 11 12 14 14 13 14 13 13 13 13 11 10 9 8 7 7 6 5 4 4 4 3 3 3 3 9 9 8